Regional Weather Roundup
Issued by NWS

Home | Current Version | Previous Version | Graphics & Text | Print | Product List | Glossary On
Versions: 1 2 3 4 5 6 7 8 9 10 11 12 13 14 15 16 17 18 19 20 21 22 23 24 25 26 27 28 29 30 31 32 33 34 35 36 37 38 39 40 41 42 43 44 45 46 47 48 49 50
656
ASUS43 KLOT 231812
RWRIL

ILLINOIS REGIONAL WEATHER ROUNDUP
NATIONAL WEATHER SERVICE CHICAGO/ROMEOVILLE IL
1200 PM CST MON JAN 23 2017

NOTE: "FAIR" INDICATES FEW OR NO CLOUDS BELOW 12,000 FEET WITH NO
SIGNIFICANT WEATHER AND/OR OBSTRUCTIONS TO VISIBILITY.

* THESE STATIONS ARE NOT UNDER NWS QUALITY CONTROL. THEY ALSO MAY NOT
  REPORT WEATHER SUCH AS PRECIPITATION OR FOG.

ILZ001-002-007-009-015-016-024-231900-
NORTHWEST ILLINOIS

CITY           SKY/WX    TMP DP  RH WIND       PRES   REMARKS
MOLINE         CLOUDY    40  35  83 W10       29.82F
6HR MIN TEMP:  37; 6HR MAX TEMP:  41;

STERLING*      CLOUDY    42  37  82 NW8       29.80F
SAVANNA*       CLOUDY    39  35  86 NW7       29.81F WCI  34
$$

ILZ003-004-008-010-011-017-018-231900-
NORTH CENTRAL ILLINOIS

CITY           SKY/WX    TMP DP  RH WIND       PRES   REMARKS
ROCKFORD       CLOUDY    44  36  73 N8        29.79F
6HR MIN TEMP:  37; 6HR MAX TEMP:  43;

FREEPORT*      CLOUDY    39  35  87 N7        29.81S WCI  34
ROCHELLE*      CLOUDY    39  36  89 N8        29.79F WCI  34
DE KALB*       CLOUDY    40  36  88 N8        29.78F
PERU*          CLOUDY    38  34  82 N10       29.80F WCI  32
$$

ILZ005-006-012>014-019>023-231900-
NORTHEAST ILLINOIS

CITY           SKY/WX    TMP DP  RH WIND       PRES   REMARKS
CHICAGO-OHARE  CLOUDY    40  36  86 N7        29.75F
6HR MIN TEMP:  37; 6HR MAX TEMP:  40;

CHICAGO-MIDWAY CLOUDY    41  34  76 N8        29.76F
6HR MIN TEMP:  39; 6HR MAX TEMP:  41;

AURORA         CLOUDY    41  36  82 N12       29.77F
6HR MIN TEMP:  37; 6HR MAX TEMP:  41;

LANSING*       CLOUDY    39  37  91 N8        29.76S WCI  34
JOLIET*        CLOUDY    40  37  86 N9        29.78S
WAUKEGAN       CLOUDY    40  36  86 N7        29.76S
6HR MIN TEMP:  37; 6HR MAX TEMP:  40;

DUPAGE AIRPORT CLOUDY    41  35  79 N9        29.76F
6HR MIN TEMP:  37; 6HR MAX TEMP:  41;

KANKAKEE*      CLOUDY    40  35  84 N7        29.77S
WHEELING       CLOUDY    40  35  83 N7        29.77F
6HR MIN TEMP:  38; 6HR MAX TEMP:  41;

MORRIS*        CLOUDY    40  35  85 N3        29.77S
ROMEOVILLE*    CLOUDY    39  37  93 N8        29.77S WCI  33
NORTHERLY ISL    N/A     38  35  89 N9          N/A  WCI  31
$$

LMZ740>746-231900-
SOUTHERN LAKE MICHIGAN

STATION/POSITION SKY/WX   TEMP    WIND        PRES    VSBY  WAVE
                          AIR SEA DIR/SP/G                  HT/PER
                          (F)     (DEG/KT/KT) (MB)    (MI)  (FT/S)
HARRISON CRIB              37     340/ 10/ 11   N/A
BURNHAM HARBOR             38     360/  9/ 12   N/A
CALUMET HARBOR             38     340/  9/ 12 1007.4F
BURNS HARBOR               36     330/  6/  8 1008.1F
MICHIGAN CITY              36     360/  9/  9   N/A
$$

ILZ025>027-034>036-040-047-049-050-058-095>099-231900-
WEST-CENTRAL ILLINOIS

CITY           SKY/WX    TMP DP  RH WIND       PRES   REMARKS
QUINCY         CLOUDY    39  34  82 NW12      29.86F WCI  32
GALESBURG*     CLOUDY    39  36  89 NW12      29.83S WCI  31
MACOMB*        CLOUDY    39  37  90 NW13      29.87S WCI  32
JACKSONVILLE*  CLOUDY    41  35  80 NW12      29.84S
PITTSFIELD*    CLOUDY    41  35  79 NW9       29.87S
$$

ILZ028>032-037-038-041>044-048-051>054-059>061-231900-
CENTRAL ILLINOIS

CITY           SKY/WX    TMP DP  RH WIND       PRES   REMARKS
PONTIAC        CLOUDY    41  38  92 N10       29.78F
BLOOMINGTON    CLOUDY    39  35  86 N15       29.77F WCI  31
DECATUR        CLOUDY    41  36  82 N13       29.77F
PEORIA         CLOUDY    41  36  82 NW8       29.81F
6HR MIN TEMP:  37; 6HR MAX TEMP:  41;

LACON*         CLOUDY    40  36  87 N7        29.79F
LINCOLN*       CLOUDY    43  37  80 NW8       29.79S
SPRINGFIELD    CLOUDY    44  36  73 NW12      29.82S
6HR MIN TEMP:  39; 6HR MAX TEMP:  44;

TAYLORVILLE    CLOUDY    39  36  88 NW12      29.81R WCI  32
6HR MIN TEMP:  37; 6HR MAX TEMP:  39;

$$

ILZ033-039-045-046-055>057-062-063-231900-
EAST-CENTRAL ILLINOIS

CITY           SKY/WX    TMP DP  RH WIND       PRES   REMARKS
CHAMPAIGN      CLOUDY    39  35  86 N15       29.75F WCI  31
RANTOUL*       CLOUDY    40  37  89 N12       29.75F
MATTOON        CLOUDY    38  36  92 N16       29.74F WCI  29
PARIS*         CLOUDY    39  37  90 N12       29.74F WCI  32
$$

ILZ079-100>102-231900-
SOUTHWEST ILLINOIS

CITY           SKY/WX    TMP DP  RH WIND       PRES   REMARKS
ALTON          CLOUDY    41  34  75 NW12G20   29.84F
BELLEVILLE     CLOUDY    43  36  78 NW16      29.81F
CAHOKIA*       CLOUDY    43  34  70 N15       29.83F
SPARTA*        CLOUDY    42  35  76 N13G20    29.82F
$$

ILZ064>066-069>071-074>076-080>082-084>086-088>090-092>094-231900-
SOUTH-CENTRAL ILLINOIS

CITY           SKY/WX    TMP DP  RH WIND       PRES   REMARKS
CARBONDALE     CLOUDY    42  37  82 N15       29.80F
6HR MIN TEMP:  40; 6HR MAX TEMP:  42;

CAIRO*         CLOUDY    44  37  77 NW13      29.79F
EFFINGHAM*     CLOUDY    40  38  93 NW10G18   29.77F
MARION         CLOUDY    43  37  81 NW17G25   29.80F
MT. VERNON     CLOUDY    41  35  79 NW8       29.79F
CENTRALIA*     CLOUDY    42  37  84 NW10      29.79F
SALEM*         CLOUDY    41  36  80 NW16      29.80S
METROPOLIS*    CLOUDY    44  37  75 NW10G20   29.78F
$$

ILZ067-068-072-073-078-083-087-091-231900-
SOUTHEAST ILLINOIS

CITY           SKY/WX    TMP DP  RH WIND       PRES   REMARKS
LAWRENCEVILLE  CLOUDY    42  38  85 N22       29.72F
FLORA*         CLOUDY    42  37  84 NW10      29.77S
FAIRFIELD*     CLOUDY    41  37  85 NW5       29.77R
HARRISBURG*    CLOUDY    42  37  83 NW10G23   29.78F
ROBINSON*      CLOUDY    40  37  87 N15       29.74F
CARMI*         CLOUDY    42  37  82 NW16      29.75F
$$

ABBREVIATIONS USED IN REMARKS
   TC - TEMPERATURE IN CELSIUS
  WCI - WIND CHILL INDEX
   HX - HEAT INDEX
  VSB - VISIBILITY
$$





USA.gov is the U.S. government's official web portal to all federal, state and local government web resources and services.